STARLINK-2147 (47736 NORAD) Tracking and Keplerian Element Data

This shows tracking and keplerian element data for the satellite.

Feedback or suggestion? Click here.




ElementValue
Catalog47736
NameSTARLINK-2147
Epoch Orbit175
Epoch Day170.58334491
Epoch Year2021
RAAN21.3973
Inclination53.0577
Eccentricity0.0001744
Argument of Perigee102.3153
Mean Anonmoly67.7623
Mean Motion15.06381318
Decay Rate0.00013087
L11 47736U 21017Q 21170.58334491 .00013087 00000-0 89631-3 0 9995
L22 47736 53.0577 21.3973 0001744 102.3153 67.7623 15.06381318 1752

Live tracking and technical data element details for STARLINK-2147 (NORAD 47736). STARLINK-2147 can be tracked NOW for your location showing map with azimuth and elevation plus other details from your city location.

Track the satellite on the map from your city or location and see movement details for azimuth, elevation, latitude, longitude, range, height, and movement on the map or in text.







IsCatalogInMostPopularTable: catalog: 47736, numindb: 46
Update: records affected: 1



GetName: 47736 STARLINK-2147

Hit Count: updated at: Mon, 21 Jun 2021 04:28:59 GMT